Hovedside
METAR-TAF:

METAR-TAF

Lufthavner :

Oljeplattform

F16-a, Nederland

breddegrad: 54-07-00N, lengdegrad: 4-00-44E, høyde over havet: 28 m

Gjeldene værobservasjon

Denne rapporten ble laget for 37 minutter siden, klokken 10:25 UTC
Vind 19 kt fra Nord-nordvest
Temperatur 8°C
Luftfuktighet 76%
Trykk 1040 hPa
Sikt 10 km eller mer

METAR: EHFZ 191025Z AUTO 33019KT 9999 NCD 08/04 Q1040

Tid: 12:02 (11:02 UTC)


TAF: fraværende

Værobservasjoner og værvarsel for over 4000 flyplasser (METAR- og TAF-rapporter).

Tilgjengelige stasjoner er representert av de røde og gule prikkene på kartet.

Hold musepekeren over prikken for å se navnet på stasjonen.

Klikk så for å se værobservasjoner og -varsler.

For å forandre kartet kan du klikke på den grønne knappen med svart kryss for å zoome inn, på den grønne knappen med strek for å zoome ut, eller på de grønne pilene for å se tilstøtende kart.


METAR-TAF: